Flag for India Weather past 2 weeks in New Okhla Industrial Development Authority, Uttar Pradesh, India

Now
97 °F

Haze.


Feels Like: 93 °F
Forecast: 84 / 109 °F
Wind: 6 mph from Southwest

Location: New Delhi Palam Airport

Current Time: May 22, 2015 at 11:26:07 PM

Latest Report: May 22, 2015 at 10:30 PM


Visibility: 2 mi

Pressure: 29.56 "Hg

Humidity: 18%

Dew point: 46 °F

Location of New Okhla Industrial Development AuthorityLocation

Historic Weather in New Okhla Industrial Development Authority — Graph

°F

New Okhla Industrial Development Authority temperature yesterday

Maximum temperature yesterday: 113 °F (at 4:00 PM)
Minimum temperature yesterday: 82 °F (at 4:30 AM)
Average temperature yesterday: 97 °F

Past Weeks' High & Low Weather Summary

 TemperatureHumidityPressure
High113 °F (May 21, 4:00 PM)89% (May 13, 12:30 PM)29.86 "Hg (May 13, 12:30 PM)
Low72 °F (May 20, 5:30 AM)8% (May 22, 4:30 PM)29.47 "Hg (May 22, 5:30 PM)
Average92 °F35%29.67 "Hg
* Reported May 7 9:30 PM — May 22 10:00 PM, New Okhla Industrial Development Authority, Weather by CustomWeather, © 2015

Note: Actual official high and low records may vary slightly from our data, if they occured in-between our weather recording intervals... More about our weather records

Advertising

New Okhla Industrial Development Authority weather history for previous 24 hours

 ConditionsComfort  
Time TempWeatherWind HumidityBarometerVisibility
10:00 PM
Fri, May 22
97 °FPassing clouds.7 mph18%29.56 "Hg2 mi
9:30 PM97 °FPassing clouds.6 mph18%29.56 "Hg2 mi
8:30 PM100 °FPassing clouds.10 mph15%29.53 "Hg2 mi
8:00 PM100 °FPassing clouds.10 mph15%29.53 "Hg2 mi
7:30 PM104 °FScattered clouds.10 mph12%29.50 "Hg2 mi
7:00 PM108 °FScattered clouds.8 mph9%29.50 "Hg3 mi
6:30 PM108 °FScattered clouds.9 mph9%29.47 "Hg3 mi
6:00 PM109 °FScattered clouds.10 mph8%29.47 "Hg3 mi
5:30 PM109 °FScattered clouds.9 mph9%29.47 "Hg3 mi
4:30 PM111 °FHaze.9 mph8%29.50 "Hg3 mi
4:00 PM111 °FHaze.9 mph9%29.50 "Hg2 mi
3:30 PM111 °FHaze.9 mph9%29.50 "Hg2 mi
3:00 PM111 °FHaze.9 mph9%29.53 "Hg2 mi
2:30 PM111 °FHaze.9 mph9%29.53 "Hg2 mi
2:00 PM109 °FHaze.9 mph10%29.56 "Hg2 mi
1:30 PM108 °FPassing clouds.9 mph13%29.56 "Hg2 mi
1:00 PM108 °FDuststorm.9 mph14%29.56 "Hg2 mi
12:30 PM106 °FHaze.8 mph15%29.59 "Hg2 mi
12:00 PM106 °FHaze.8 mph15%29.59 "Hg2 mi
11:30 AM104 °FHaze.9 mph16%29.59 "Hg2 mi
11:00 AM102 °FHaze.12 mph17%29.62 "Hg2 mi
10:30 AM100 °FHaze.12 mph18%29.62 "Hg2 mi
9:30 AM97 °FHaze.12 mph20%29.62 "Hg2 mi
8:00 AM88 °FHaze.9 mph31%29.62 "Hg1 mi
7:30 AM86 °FHaze.7 mph35%29.62 "Hg1 mi
7:00 AM86 °FHaze.7 mph31%29.59 "Hg1 mi
6:30 AM84 °FHaze.No wind37%29.56 "Hg1 mi
6:00 AM84 °FHaze.No wind37%29.56 "Hg2 mi
5:30 AM84 °FHaze.No wind35%29.56 "Hg2 mi
5:00 AM84 °FHaze.No wind35%29.56 "Hg2 mi
4:30 AM86 °FHaze.3 mph31%29.53 "Hg2 mi
4:00 AM88 °FHaze.3 mph29%29.53 "Hg2 mi
3:30 AM90 °FHaze.5 mph24%29.56 "Hg2 mi
3:00 AM88 °FHaze.3 mph27%29.56 "Hg2 mi
2:30 AM90 °FHaze.5 mph24%29.56 "Hg2 mi
2:00 AM90 °FHaze.5 mph24%29.56 "Hg2 mi
1:30 AM91 °FHaze.5 mph23%29.59 "Hg2 mi
1:00 AM91 °FHaze.5 mph26%29.59 "Hg2 mi
12:30 AM91 °FHaze.5 mph26%29.59 "Hg2 mi
12:00 AM91 °FHaze.5 mph26%29.59 "Hg1 mi
11:30 PM
Thu, May 21
93 °FHaze.6 mph24%29.59 "Hg1 mi
11:00 PM91 °FHaze.5 mph26%29.59 "Hg1 mi
Weather by CustomWeather, © 2015

See weather overviewHow to use our weather pages